1st Responders/1st Detectors/Storm Spotters Weather Summary for Harrison County, KY

Forecast Maps


Reg. NEXRAD Animation


National Fire Danger: Day 1 & 2 Map

Current NWS Watch/Warnings

SPC Convective Day 1 Outlook


Day 2 Outlook

(Click images to enlarge|Page will refresh every 5 minutes)
UK Ag. Weather Center Desktop Severe Weather Service[HERE]
Harrison County, KY Hazardous Weather Outlook Webcast
(9 AM to 9 PM Mon-Fri)
[Fast]
[Dial-up]


UKAWC 1st Detectors/1st Responders Precision Weather Forecast For HARRISON County, Kentucky
(based on the NWS County Digital Forecast)

ISSUED AT 08:00 UTC ON SUNDAY APR 30 2017
DAY SUNDAY
EDT 3HR 5A 6A 7A 8A 9A 10A 11A NOON 1P 2P 3P 4P 5P 6P 7P
MAX/MIN -- -- -- 67° -- -- -- -- -- -- -- -- -- -- 85°
TEMP 67° 67° 67° 68° 72° 76° 79° 81° 83° 83° 85° 85° 85° 83° 81°
SKY COVER 30% 28% 27% 25% 28% 32% 35% 38% 41% 45% 46% 48% 49% 50% 52%
Clouds
DEW PT 63° 65° 65° 65° 65° 65° 65° 65° 65° 65° 65° 65° 63° 63° 63°
RH 90% 92% 93% 86% 78% 68% 62% 56% 54% 53% 51% 49% 48% 51% 54%
POP 12HR -- -- -- 16% -- -- -- -- -- -- -- -- -- -- --
RAIN/SNOW (liq.equ) -- -- -- 0.00in -- -- -- -- -- 0.00in -- -- -- -- --
SNOWFALL -- -- -- 0in -- -- -- -- -- 0in -- -- -- -- --
WIND SPEED(MPH) 7 8 8 9 10 13 14 15 15 16 16 16 15 15 15
WIND Gust(MPH) 10 13 13 14 15 16 18 22 23 23 23 23 23 22 21
WIND DIR S S S S S S S S S S S S S S S
DEW Lgt Dew Lgt Dew Lgt Dew Lgt Dew -- -- -- -- -- -- -- -- -- -- --
HeatIndex 67 67 67 68 72 76 79 83 84 85 86 87 87 85 82
Rain Showers -- -- -- -- -- -- -- -- -- -- -- -- -- -- --
Thunder Storm -- -- -- -- -- -- -- -- -- -- -- -- -- -- --
WIND CHILL -- -- -- -- -- -- -- -- -- -- -- -- -- -- --
SPRAY COND
DRY COND
LIVESTOCK COLDSTRESS
LIVESTOCK HEATSTRESS 66.55 66.64 66.68 67.29 70.40 72.97 74.78 75.63 76.88 76.74 77.94 77.65 77.51 76.48 75.38



DAY SUNDAY MONDAY TUESDAY WEDNESDAY THURSDAY FRIDAY SATURDAY
EDT 6HR 8P 9P 10P 11P MIDN 1A 2A 3A 4A 5A 6A 7A 8A 9A 10A 11A NOON 1P 2P 3P 4P 5P 8P 11P 2A 5A 8A 11A 2P 5P 8P 2A 8A 2P 8P 2A 8A 2P 8P 2A 8A 2P 8P 2A 8A 2P 8P
MAX/MIN -- -- -- -- -- -- -- -- -- -- -- -- 58° -- -- -- -- -- -- -- -- 68° -- -- -- -- 49° -- -- 68° -- -- 47° 65° -- -- 49° 58° -- -- 45° 61° -- -- 47° 65° --
TEMP 77° 76° 74° 72° 72° 70° 70° 68° 65° 63° 61° 59° 58° 58° 61° 63° 65° 67° 68° 68° 67° 67° 59° 54° 52° 50° 49° 61° 67° 68° 63° 49° 47° 63° 61° 52° 49° 56° 56° 47° 45° 58° 58° 49° 47° 61° 59°
SKY COVER 53% 57% 64% 68% 73% 85% 90% 92% 96% 97% 95% 90% 87% 79% 62% 53% 51% 47% 46% 53% 67% 74% 71% 77% 57% 53% 27% 25% 22% 18% 21% 44% 75% 85% 93% 96% 94% 89% 91% 86% 71% 60% 58% 55% 58% 62% 60%
Clouds
DEW PT 63° 61° 61° 61° 61° 59° 59° 59° 58° 58° 58° 56° 56° 54° 52° 52° 50° 49° 47° 47° 45° 45° 41° 40° 40° 40° 40° 41° 40° 41° 43° 41° 43° 45° 47° 47° 47° 49° 45° 43° 41° 43° 45° 43° 43° 45° 45°
RH 59% 62% 64% 66% 68% 68% 70% 72% 78% 84% 86% 90% 89% 86% 75% 67% 58% 50% 47% 44% 45% 45% 51% 59% 66% 68% 70% 50% 38% 37% 46% 76% 82% 53% 61% 83% 89% 77% 63% 82% 85% 54% 59% 76% 82% 57% 59%
POP 12HR 19% -- -- -- -- -- -- -- -- -- -- -- 83% -- -- -- -- -- -- -- -- -- 50% -- -- -- 7% -- -- -- 4% -- 13% -- 39% -- 75% -- 64% -- 39% -- 35% -- 23% -- 32%
RAIN/SNOW (liq.equ) 0.00in -- -- -- -- -- 0.04in -- -- -- -- -- 0.49in -- -- -- -- -- 0.09in -- -- -- 0.00in -- 0.00in -- 0.00in -- 0.00in -- 0.00in -- -- -- -- -- -- -- -- -- -- -- -- -- -- -- --
SNOWFALL 0in -- -- -- -- -- 0in -- -- -- -- -- 0in -- -- -- -- -- 0in -- -- -- 0in -- 0in -- 0in -- 0in -- 0in -- -- -- -- -- -- -- -- -- -- -- -- -- -- -- --
WIND SPEED(MPH) 15 14 14 14 14 14 14 14 13 13 13 13 13 14 15 16 17 18 21 21 21 18 16 14 9 9 13 15 16 15 8 2 2 7 7 7 7 8 8 7 8 10 7 7 7 9 7
WIND DIR S S S S S S S S S S S S S SW SW SW SW SW SW SW SW SW SW SW SW SW SW W W W W NW E E NE NE E N N N N N N N N N N
HeatIndex 77 76 74 72 72 70 70 68 65 63 61 59 58 58 61 63 65 67 68 68 67 67 59 54 52 50 49 61 67 68 63 49 47 63 61 52 49 56 56 47 45 58 58 49 47 61 59
Rain Showers -- Slight Chance Chance Chance Chance Chance Likely Likely Definite Definite Likely Chance Chance Chance Chance Chance Chance Chance -- -- -- -- -- -- -- -- -- -- -- -- -- -- Chance Chance Chance Definite Likely Chance Chance Chance Chance Chance Slight Chance Slight Chance Chance Chance Slight Chance
Thunder Storm -- Slight Chance Chance Chance Chance Chance Likely Likely Definite Definite Likely Chance Chance Chance Chance -- -- -- -- -- -- -- -- -- -- -- -- -- -- -- -- -- -- Slight Chance Slight Chance -- -- -- -- -- -- -- -- -- -- -- --
WIND CHILL -- -- -- -- -- -- -- -- -- -- -- -- -- -- -- -- -- -- -- -- -- -- -- -- -- -- -- -- -- -- -- -- -- -- -- -- -- -- -- -- 41° -- -- -- -- -- --
SPRAY COND
DRY COND
LIVESTOCK COLDSTRESS
LIVESTOCK HEATSTRESS 72.90 72.41 70.99 69.53 69.68 68.03 68.15 66.58 64.25 62.63 60.83 58.99 58.05 58.06 60.70 62.24 63.57 64.75 65.32 65.17 64.52 64.52 58.95 55.08 53.27 51.55 50.62 60.39 64.20 64.81 61.75 50.29 48.17 61.91 60.53 52.64 49.59 56.35 56.57 48.17 46.14 58.20 58.18 50.29 48.17 60.48 58.95

Click on individual weather variable above in left-hand column (ie., TEMP, RH, QPF 12HR) to view state forecast maps






NWS 48 Hr. Forecast Maps,

Regional Hourly Observations For HARRISON County, Kentucky
Issued at 400 AM EDT SUN APR 30 2017
NORTHEAST KENTUCKY
  
CITY           SKY/WX    TMP DP  RH WIND       PRES   REMARKS
LEXINGTON      PTCLDY    72  63  73 SE7       29.96F                  
COVINGTON      MOCLDY    71  64  78 S6        29.92R                  
FRANKFORT      CLEAR     73  62  68 S6        29.91F                  


Current NOWCAST not available:
Nowcasts are not issued routinely during fair weather. Only when
precipitation or other significant weather is occuring in this county will these
forecasts be issued. Currently, there is no short term forecast in effect.


Fire Weather Forecast For HARRISON County, KY
Provided by the National Weather Service:

Issued at: Sun Apr 30 04:05:01 EDT 2017


                      Today        Tonight      Mon          

CLOUD COVER           PCldy        MCldy        PCldy        
PRECIP TYPE           NONE         tstms        tstms        
CHANCE PRECIP (%)     0            90           50           
TEMP (24H TREND)      86 (+1)      57 (-11)     69           
RH % (24H TREND)      44 (-9)      94 (+8)      43           
20FTWND-VAL/AM(MPH)   S 10 G27                  SW 12 G25    
20FTWND-RDG/PM(MPH)   S 13 G27     S 11 G22     SW 15 G27    
PRECIP AMOUNT         0.00         0.58         0.12         
MIXING HGT(FT-AGL/MSL)7230                      7615         
TRANSPORT WND (MPH)   S 33                      SW 37        
VENT RATE (KT-FT)     216941                    258910       
DISPERSION            Excellent                 Excellent    
DSI                   SLGT UNSTBL  MOD UNSTBL   SLGT UNSTBL  
LAL                   1            5            5            
HAINES INDEX          3            3            2            
ADI EARLY             113 VERY GOOD39 FAIR      106 VERY GOOD
ADI LATE              123 VERY GOOD39 FAIR      134 VERY GOOD
MAX LVORI EARLY       5            2            4            
MAX LVORI LATE        1            4            1            

REMARKS...ADI IS ATMOSPHERIC DISPERSION INDEX BY LAVDAS.        
LVORI IS LOW VISIBILITY OCCURRENCE RISK INDEX.

.TUESDAY...Partly cloudy. Lows in the upper 40s. Highs in the
upper 60s. Southwest winds around 10 mph. 
.WEDNESDAY...Mostly cloudy. Chance of rain showers. Lows in the
upper 40s. Highs in the mid 60s. West winds around 5 mph. 
.THURSDAY...Rain showers likely. Lows around 50. Highs in the
lower 60s. Northeast winds 5 to 10 mph. 
.FRIDAY...Mostly cloudy with a 50 percent chance of rain showers.
Lows in the upper 40s. Highs in the lower 60s. North winds 5 to
10 mph. 
.SATURDAY...Mostly cloudy. A 40 percent chance of rain showers.
Lows in the upper 40s. Highs in the upper 60s. North winds 5 to
10 mph. 

SPC's Fire Weather Web Tool (Excellent!), SPC's Fire Weather Outlooks, NWS Fire Weather WEB, Fire Danger Class Map,
Keetch-Byram Drought Index, ROMAN Web, Haines Index ,
WFAS's 10-hr Dead Fuel Moist., WFAS's 100-hr Dead Fuel Moist., Probablity of Ignition, Visual blackness Map, Palmer Drought Index, HPC's Rainfall Forecast Maps


Hazardous Weather Outlook For HARRISON County, Kentucky
403 AM EDT Sun Apr 30 2017 /303 AM CDT Sun Apr 30 2017/

 DAY ONE  Today and Tonight.

Winds will become breezy today with gusts out of the south up to 35
mph from mid morning through this afternoon.

Thunderstorms will move in this evening and continue into the
overnight hours. A few strong to severe storms will be possible with
damaging winds and large hail. In addition, torrential rainfall will
be possible with these storms.

 DAYS TWO THROUGH SEVEN  Monday through Saturday.

No hazardous weather is expected at this time.

 SPOTTER INFORMATION STATEMENT  

Spotters are asked to report wind, hail of any size, and instances 
of flooding through tonight.

Latest HARRISON County, Kentucky Watches, Warnings and Advisories.
Additional Drought Info.: UKAWC Drought Page, Kentucky Drought Watch


7-Day Forecast For HARRISON County, KY

TODAY
Mostly sunny in the morning then becoming partly cloudy. Highs in the mid 80s. South winds 5 to 15 mph increasing to 15 to 20 mph in the afternoon. Gusts up to 35 mph.

TONIGHT
Showers and thunderstorms. Lows in the upper 50s. South winds 10 to 15 mph with gusts to around 30 mph. Chance of precipitation 90 percent.

MONDAY
Partly cloudy with a 50 percent chance of showers and thunderstorms. Highs in the upper 60s. Southwest winds 10 to 20 mph with gusts to around 35 mph.

MONDAY NIGHT
Mostly cloudy. Lows in the upper 40s. Southwest winds 10 to 15 mph with gusts to around 30 mph.

TUESDAY
Partly cloudy. Highs in the upper 60s. Southwest winds 15 to 20 mph.

TUESDAY NIGHT
Partly cloudy. Lows in the upper 40s.

WEDNESDAY
Mostly cloudy with chance of showers and slight chance of thunderstorms. Highs in the lower 60s. Chance of precipitation 40 percent.

WEDNESDAY NIGHT
Showers and slight chance of thunderstorms. Lows in the upper 40s. Chance of precipitation 80 percent.

THURSDAY
Showers likely and slight chance of thunderstorms. Highs in the upper 50s. Chance of precipitation 70 percent.

THURSDAY NIGHT
Cloudy with a 50 percent chance of showers. Lows in the upper 40s.

FRIDAY
Mostly cloudy with a 50 percent chance of showers. Highs in the lower 60s.

FRIDAY NIGHT
Partly cloudy with a 40 percent chance of showers. Lows in the upper 40s.

SATURDAY
Partly cloudy with a 40 percent chance of showers. Highs in the upper 60s.

Ag Weather Center, Department of Biosystems & Agricultural Engineering, University of Kentucky